Northeast Philadelphia, PA

12:06 AM EDT on October 24, 2017 (GMT -0400)
Northeast Philadelphia

Weather History for KPNE - September, 2013

Change the Weather History Date:

Tuesday, September 24, 2013

  Actual Average Record
Temperature  
Mean Temperature 60 °F -  
Max Temperature 73 °F 71 °F 91 °F (2017)
Min Temperature 46 °F 52 °F 42 °F (1998)
Degree Days  
Heating Degree Days 6    
Growing Degree Days 10 (Base 50)    
Moisture  
Dew Point 45 °F    
Average Humidity 61    
Maximum Humidity 83    
Minimum Humidity 39    
Precipitation  
Precipitation 0.02 in - - ()
Sea Level Pressure  
Sea Level Pressure 30.02 in    
Wind  
Wind Speed 5 mph (NW)    
Max Wind Speed 10 mph    
Max Gust Speed -    
Visibility 10 miles    
Events      
Averages and records for this station are not official NWS values.
T = Trace of Precipitation, MM = Missing Value Source: NWS Daily Summary

Daily Weather History Graph

Daily Weather History Graph

Search for Another Location

Airport or City:

Trip Planner

Search our weather history database for the weather conditions in past years. The results will help you decide how hot, cold, wet, or windy it might be!

Date:

Astronomy

Sep. 24, 2013 Rise Set
Actual Time 6:49 AM EDT 6:53 PM EDT
Civil Twilight 6:22 AM EDT 7:20 PM EDT
Nautical Twilight 5:51 AM EDT 7:52 PM EDT
Astronomical Twilight 5:18 AM EDT 8:24 PM EDT
Moon 10:09 PM EDT 12:02 PM EDT
Length of Visible Light 12h 57m
Length of Day
12h 03m
Waning Gibbous, 73% of the Moon is Illuminated
Sep 24
Waning Gibbous
Sep 26
Last Quarter
Oct 4
New
Oct 11
First Quarter
Oct 18
Full

Hourly Weather History & Observations

Time (EDT) Temp. Windchill Dew Point Humidity Pressure Visibility Wind Dir Wind Speed Gust Speed Precip Events Conditions
12:54 AM 51.1 °F - 43.0 °F 74% 30.08 in 10.0 mi Calm Calm - N/A   Clear
1:54 AM 50.0 °F - 42.1 °F 74% 30.09 in 10.0 mi NW 4.6 mph - N/A   Clear
2:54 AM 48.9 °F - 42.1 °F 77% 30.08 in 10.0 mi NNW 3.5 mph - N/A   Clear
3:54 AM 48.9 °F - 41.0 °F 74% 30.09 in 10.0 mi NNW 6.9 mph - N/A   Clear
4:54 AM 48.0 °F - 41.0 °F 77% 30.09 in 10.0 mi NNW 5.8 mph - N/A   Clear
5:54 AM 46.9 °F - 41.0 °F 80% 30.09 in 10.0 mi NNW 6.9 mph - N/A   Clear
6:54 AM 46.0 °F 43.1 °F 41.0 °F 83% 30.10 in 10.0 mi NNW 5.8 mph - N/A   Clear
7:54 AM 50.0 °F - 42.1 °F 74% 30.10 in 10.0 mi NNW 5.8 mph - 0.01 in   Clear
8:54 AM 55.0 °F - 43.0 °F 64% 30.09 in 10.0 mi NW 4.6 mph - N/A   Clear
9:54 AM 57.0 °F - 44.1 °F 62% 30.09 in 10.0 mi West 8.1 mph - 0.01 in   Clear
10:54 AM 60.1 °F - 44.1 °F 55% 30.06 in 10.0 mi NNW 8.1 mph - N/A   Clear
11:54 AM 63.0 °F - 44.1 °F 50% 30.05 in 10.0 mi NW 5.8 mph - N/A   Clear
12:54 PM 66.9 °F - 46.0 °F 47% 30.01 in 10.0 mi North 8.1 mph - N/A   Clear
1:54 PM 70.0 °F - 46.0 °F 42% 29.99 in 10.0 mi NW 9.2 mph - N/A   Clear
2:54 PM 71.1 °F - 46.9 °F 42% 29.96 in 10.0 mi West 10.4 mph - N/A   Clear
3:54 PM 72.0 °F - 46.9 °F 41% 29.94 in 10.0 mi NW 8.1 mph - N/A   Clear
4:54 PM 73.0 °F - 46.9 °F 39% 29.94 in 10.0 mi West 5.8 mph - N/A   Clear
5:54 PM 72.0 °F - 46.9 °F 41% 29.93 in 10.0 mi WNW 8.1 mph - N/A   Clear
6:54 PM 66.0 °F - 48.0 °F 52% 29.94 in 10.0 mi West 4.6 mph - N/A   Clear
7:54 PM 64.0 °F - 48.9 °F 58% 29.94 in 10.0 mi West 3.5 mph - N/A   Clear
8:54 PM 62.1 °F - 51.1 °F 67% 29.95 in 10.0 mi West 3.5 mph - N/A   Clear
9:54 PM 62.1 °F - 46.9 °F 58% 29.94 in 10.0 mi NW 8.1 mph - N/A   Clear
10:54 PM 57.9 °F - 46.9 °F 67% 29.95 in 10.0 mi Calm Calm - N/A   Clear
11:54 PM 55.9 °F - 45.0 °F 67% 29.95 in 10.0 mi North 6.9 mph - N/A   Clear